COSMOS 1067

Satellite information

Favourite Embed

Satellite Type and Status

PAYLOADIN ORBIT

Key statistics

Satellite COSMOS 1067 at a glance.

Uptime

17158

Days in orbit

Revolutions

≈ 13.2

Per day

Orbit

LEO

Low Earth Orbit

Inclination

83.0

Latest

Satellite identification and parameters

Extended collection of information and parameters for COSMOS 1067.

Object identification

Identified? True

Debris? False

Object name: COSMOS 1067

International designator: 1978-122A

Object number (NORAD): 11168

Object ID (CCSDS): 11168

Country: COMMONWEALTH OF INDEPENDENT STATES (CIS)

Current information (Y/N): Y

RCS size: LARGE

Orbital parameters

Period: 109.072 minutes

Inclination: 82.9717 deg

SMA: 7561.983 km

Apoapsis: 1210.163 km

Periapsis: 1157.533 km

RAAN: 337.6294 deg

Eccentricy: 0.00347993

Argument of periapsis: 291.4055 deg

Mean anomaly: 126.8199 deg

Mean motion: 13.20228816 rev/day

Mean motion (dot): 0.00000044 rev/day2

B* drag term: 0.000076880281 1/REarth

Two-line elements (TLE)

Creation date: Dec. 16, 2025, 2:19 a.m.

Reference frame: TEME

Reference center: EARTH

Epoch: Dec. 15, 2025, 10:48 p.m. UTC

TLE line 0: 0 COSMOS 1067

TLE line 1: 1 11168U 78122A 25349.95052104 .00000044 00000-0 76880-4 0 9997

TLE line 2: 2 11168 82.9717 337.6294 0034799 291.4055 126.8199 13.20228816246927

Live tracking on map

Real-time ground track for satellite COSMOS 1067.

In-orbit conjunctions

There are no conjunctions computed for COSMOS 1067, at the moment. Check back to stay up to date, as we update our databases every day.

Go to all conjunctions

Associated space launch

High-resolution film-return Zenit reconnaissance satellite

COSMOS 1067 was lifted into orbit during the mission ‘Soyuz U | Zenit-4MKM 25’, on board a Soyuz U space rocket.

The launch took place on Dec. 26, 1978, 3:30 p.m. from 43/4 (43R).

For more information about the launch, click the button.

Launch to space Soyuz U | Zenit-4MKM 25
Soyuz U | Zenit-4MKM 25

Agency: N/A

Status: Launch Successful

Launch date: Dec. 26, 1978, 3:30 p.m. UTC

Rocket: Soyuz U

Launch pad: 43/4 (43R)

Location: Plesetsk Cosmodrome, Russian Federation

...

Latest news about this satellite

There are no fresh news available about this satellite. Check back as we update our databases every day.


Newsletter sign-up

Weekly statistics, charts and insights to help you stay on top of the space industry.